• In Deutschland
  • Länderverzeichnis
  • Für 7 Tage
  • Wassertemperatur
  • Satellitenkarten
  • Wetterkarte
  • Widgets
  • user-avatar
    Anmelden

    Stündliche Wetter Wittenberge

    Heute, 21 Januar, Sonntag

    Zeit Temperatur Niederschläge Wind Luftdruck Luftfeuchtigkeit
    00:00 -2°C° 0 mm 2 m/S 750 mmHg 93%
    01:00 0°C° 0 mm 1 m/S 750 mmHg 93%
    02:00 0°C° 0 mm 1 m/S 751 mmHg 93%
    03:00 0°C° 0 mm 1 m/S 752 mmHg 94%
    04:00 0°C° 0 mm 1 m/S 752 mmHg 94%
    05:00 0°C° 0 mm 1 m/S 753 mmHg 94%
    06:00 0°C° 0 mm 1 m/S 753 mmHg 94%
    07:00 -1°C° 0 mm 1 m/S 754 mmHg 94%
    08:00 0°C° 0 mm 1 m/S 755 mmHg 92%
    09:00 0°C° 0 mm 1 m/S 756 mmHg 90%
    10:00 +1°C° 0 mm 1 m/S 757 mmHg 88%
    11:00 +2°C° 0 mm 1 m/S 757 mmHg 84%
    12:00 +3°C° 0 mm 1 m/S 758 mmHg 80%
    13:00 +2°C° 0 mm 0 m/S 759 mmHg 80%
    14:00 +1°C° 0 mm 0 m/S 759 mmHg 82%
    15:00 +1°C° 0 mm 0 m/S 760 mmHg 85%
    16:00 0°C° 0 mm 0 m/S 760 mmHg 87%
    17:00 0°C° 0 mm 0 m/S 760 mmHg 89%
    18:00 0°C° 0 mm 1 m/S 760 mmHg 90%
    19:00 0°C° 0 mm 1 m/S 761 mmHg 92%
    20:00 0°C° 0 mm 1 m/S 760 mmHg 93%
    21:00 -2°C° 0 mm 2 m/S 760 mmHg 94%
    22:00 -2°C° 0 mm 2 m/S 760 mmHg 94%
    23:00 -2°C° 0 mm 2 m/S 760 mmHg 94%

    Morgen, 22 Januar, Montag

    Zeit Temperatur Niederschläge Wind Luftdruck Luftfeuchtigkeit
    00:00 -2°C° 0 mm 2 m/S 760 mmHg 94%
    01:00 -2°C° 0 mm 3 m/S 759 mmHg 93%
    02:00 -2°C° 0 mm 3 m/S 759 mmHg 92%
    03:00 -2°C° 0 mm 3 m/S 758 mmHg 91%
    04:00 -2°C° 0 mm 3 m/S 758 mmHg 90%
    05:00 -3°C° 0 mm 4 m/S 757 mmHg 88%
    06:00 -2°C° 0 mm 4 m/S 757 mmHg 86%
    07:00 -2°C° 0 mm 4 m/S 757 mmHg 84%
    08:00 -2°C° 0 mm 4 m/S 756 mmHg 82%
    09:00 -1°C° 0 mm 5 m/S 756 mmHg 80%
    10:00 -1°C° 0 mm 5 m/S 756 mmHg 77%
    11:00 -1°C° 0,1 mm 5 m/S 755 mmHg 77%
    12:00 -1°C° 0,1 mm 5 m/S 755 mmHg 77%
    13:00 0°C° 0,1 mm 5 m/S 755 mmHg 76%
    14:00 0°C° 0,2 mm 4 m/S 755 mmHg 78%
    15:00 -1°C° 0,2 mm 4 m/S 755 mmHg 81%
    16:00 -1°C° 0,2 mm 4 m/S 755 mmHg 83%
    17:00 -1°C° 0,1 mm 4 m/S 755 mmHg 85%
    18:00 0°C° 0,1 mm 3 m/S 755 mmHg 87%
    19:00 0°C° 0,1 mm 3 m/S 756 mmHg 88%
    20:00 +1°C° 0,1 mm 2 m/S 756 mmHg 90%
    21:00 +1°C° 0,1 mm 2 m/S 757 mmHg 92%
    22:00 +1°C° 0,1 mm 2 m/S 757 mmHg 94%
    23:00 +1°C° 0,1 mm 2 m/S 758 mmHg 94%

    übermorgen, 23 Januar, Dienstag

    Zeit Temperatur Niederschläge Wind Luftdruck Luftfeuchtigkeit
    00:00 +1°C° 0,1 mm 2 m/S 758 mmHg 95%
    01:00 +1°C° 0,1 mm 2 m/S 759 mmHg 96%
    02:00 +2°C° 0,1 mm 2 m/S 759 mmHg 96%
    03:00 +2°C° 0,1 mm 2 m/S 760 mmHg 96%
    04:00 +2°C° 0,1 mm 2 m/S 760 mmHg 96%
    05:00 +2°C° 0,1 mm 2 m/S 761 mmHg 96%
    06:00 +1°C° 0,1 mm 3 m/S 761 mmHg 96%
    07:00 +2°C° 0,1 mm 3 m/S 762 mmHg 96%
    08:00 +2°C° 0 mm 3 m/S 762 mmHg 96%
    09:00 +2°C° 0 mm 3 m/S 763 mmHg 96%
    10:00 +2°C° 0 mm 3 m/S 763 mmHg 96%
    11:00 +2°C° 0 mm 3 m/S 763 mmHg 95%
    12:00 +3°C° 0 mm 3 m/S 763 mmHg 93%
    13:00 +3°C° 0 mm 3 m/S 763 mmHg 92%
    14:00 +3°C° 0 mm 3 m/S 763 mmHg 92%
    15:00 +3°C° 0 mm 3 m/S 763 mmHg 92%
    16:00 +3°C° 0 mm 3 m/S 763 mmHg 92%
    17:00 +3°C° 0 mm 3 m/S 763 mmHg 92%
    18:00 +2°C° 0 mm 3 m/S 763 mmHg 92%
    19:00 +1°C° 0 mm 4 m/S 762 mmHg 92%
    20:00 +1°C° 0 mm 4 m/S 762 mmHg 92%
    21:00 +1°C° 0 mm 4 m/S 762 mmHg 92%
    22:00 +1°C° 0 mm 4 m/S 761 mmHg 92%
    23:00 +3°C° 0 mm 4 m/S 761 mmHg 92%

    24 Januar, Mittwoch

    Zeit Temperatur Niederschläge Wind Luftdruck Luftfeuchtigkeit
    00:00 +3°C° 0 mm 4 m/S 761 mmHg 92%
    01:00 +4°C° 0 mm 4 m/S 760 mmHg 92%
    02:00 +5°C° 0 mm 4 m/S 760 mmHg 93%
    03:00 +5°C° 0 mm 4 m/S 760 mmHg 94%
    04:00 +6°C° 0 mm 4 m/S 759 mmHg 94%
    05:00 +6°C° 0,1 mm 5 m/S 759 mmHg 94%
    06:00 +7°C° 0,1 mm 5 m/S 759 mmHg 93%
    07:00 +8°C° 0,1 mm 5 m/S 759 mmHg 92%
    08:00 +8°C° 0 mm 5 m/S 759 mmHg 91%
    09:00 +8°C° 0 mm 6 m/S 759 mmHg 90%
    10:00 +9°C° 0 mm 6 m/S 759 mmHg 90%
    11:00 +9°C° 0 mm 6 m/S 759 mmHg 87%
    12:00 +10°C° 0 mm 6 m/S 759 mmHg 85%
    13:00 +10°C° 0 mm 6 m/S 759 mmHg 83%
    14:00 +10°C° 0 mm 6 m/S 758 mmHg 83%
    15:00 +10°C° 0 mm 6 m/S 758 mmHg 83%
    16:00 +9°C° 0 mm 6 m/S 757 mmHg 83%
    17:00 +9°C° 0 mm 6 m/S 757 mmHg 84%
    18:00 +9°C° 0 mm 7 m/S 756 mmHg 84%
    19:00 +8°C° 0 mm 7 m/S 756 mmHg 85%
    20:00 +8°C° 0 mm 7 m/S 755 mmHg 84%
    21:00 +8°C° 0 mm 7 m/S 755 mmHg 83%
    22:00 +8°C° 0 mm 7 m/S 755 mmHg 82%
    23:00 +9°C° 0 mm 7 m/S 754 mmHg 81%

    25 Januar, Donnerstag

    Zeit Temperatur Niederschläge Wind Luftdruck Luftfeuchtigkeit
    00:00 +9°C° 0 mm 7 m/S 754 mmHg 81%
    01:00 +9°C° 0 mm 7 m/S 754 mmHg 81%
    02:00 +9°C° 0,1 mm 7 m/S 754 mmHg 82%
    03:00 +9°C° 0,1 mm 6 m/S 754 mmHg 82%
    04:00 +9°C° 0,1 mm 6 m/S 754 mmHg 83%
    05:00 +8°C° 0,1 mm 5 m/S 754 mmHg 85%
    06:00 +8°C° 0,1 mm 4 m/S 754 mmHg 87%
    07:00 +9°C° 0,1 mm 3 m/S 755 mmHg 89%
    08:00 +9°C° 0,1 mm 3 m/S 755 mmHg 89%
    09:00 +9°C° 0,1 mm 3 m/S 755 mmHg 89%
    10:00 +8°C° 0,1 mm 3 m/S 755 mmHg 89%
    11:00 +9°C° 0,2 mm 3 m/S 755 mmHg 87%
    12:00 +8°C° 0,2 mm 4 m/S 755 mmHg 85%
    13:00 +8°C° 0,2 mm 4 m/S 755 mmHg 83%
    14:00 +7°C° 0,2 mm 4 m/S 755 mmHg 83%
    15:00 +8°C° 0,2 mm 3 m/S 755 mmHg 84%
    16:00 +8°C° 0,2 mm 2 m/S 755 mmHg 85%
    17:00 +7°C° 0 mm 2 m/S 756 mmHg 87%
    18:00 +7°C° 0 mm 2 m/S 756 mmHg 88%
    19:00 +6°C° 0 mm 2 m/S 756 mmHg 90%
    20:00 +6°C° 0 mm 2 m/S 757 mmHg 90%
    21:00 +6°C° 0 mm 2 m/S 757 mmHg 91%
    22:00 +5°C° 0 mm 2 m/S 757 mmHg 92%
    23:00 +5°C° 0 mm 2 m/S 757 mmHg 92%

    26 Januar, Freitag

    Zeit Temperatur Niederschläge Wind Luftdruck Luftfeuchtigkeit
    00:00 +5°C° 0 mm 2 m/S 757 mmHg 92%
    01:00 +5°C° 0 mm 2 m/S 758 mmHg 93%
    02:00 +5°C° 0 mm 2 m/S 758 mmHg 93%
    03:00 +4°C° 0 mm 2 m/S 758 mmHg 93%
    04:00 +4°C° 0 mm 2 m/S 758 mmHg 93%
    05:00 +4°C° 0 mm 2 m/S 758 mmHg 93%
    06:00 +4°C° 0 mm 2 m/S 758 mmHg 93%
    07:00 +3°C° 0 mm 2 m/S 758 mmHg 94%
    08:00 +4°C° 0 mm 2 m/S 759 mmHg 92%
    09:00 +4°C° 0 mm 2 m/S 759 mmHg 91%
    10:00 +4°C° 0 mm 2 m/S 759 mmHg 90%
    11:00 +5°C° 0 mm 2 m/S 759 mmHg 87%
    12:00 +6°C° 0 mm 2 m/S 760 mmHg 84%
    13:00 +6°C° 0 mm 2 m/S 760 mmHg 81%
    14:00 +6°C° 0 mm 2 m/S 760 mmHg 83%
    15:00 +6°C° 0 mm 2 m/S 760 mmHg 85%
    16:00 +5°C° 0 mm 2 m/S 760 mmHg 87%
    17:00 +5°C° 0 mm 2 m/S 761 mmHg 88%
    18:00 +5°C° 0 mm 2 m/S 761 mmHg 90%
    19:00 +4°C° 0 mm 2 m/S 761 mmHg 91%
    20:00 +4°C° 0 mm 2 m/S 762 mmHg 92%
    21:00 +3°C° 0 mm 2 m/S 762 mmHg 92%
    22:00 +3°C° 0 mm 2 m/S 762 mmHg 93%
    23:00 +3°C° 0 mm 2 m/S 763 mmHg 93%
    Mehr zeigen